When you browse on this site, cookies collect data to enhance your experience and personalize the content and advertising you see.
Visit our Privacy Policy to learn more. By continuing to use the site, you agree to this use of cookies and data.
  • In Austria
  • List of Countries
  • For 7 days
  • Water Temperature
  • Weather Map
  • News
  • Weather Widgets
  • user-avatar
    Login

    Hourly Weather Szeged

    Today, 28 January, Tuesday

    Time Temperature Precipitation Wind Pressure Humidity
    00:00 +1°C° 0 mm 2 mps 755 mmHg 78%
    01:00 -1°C° 0 mm 2 mps 754 mmHg 80%
    02:00 -1°C° 0 mm 2 mps 754 mmHg 82%
    03:00 -1°C° 0 mm 3 mps 754 mmHg 84%
    04:00 -1°C° 0 mm 3 mps 753 mmHg 85%
    05:00 0°C° 0 mm 3 mps 753 mmHg 86%
    06:00 -1°C° 0 mm 4 mps 753 mmHg 87%
    07:00 -1°C° 0 mm 4 mps 752 mmHg 88%
    08:00 0°C° 0.3 mm 5 mps 752 mmHg 87%
    09:00 +1°C° 0.3 mm 5 mps 751 mmHg 86%
    10:00 +2°C° 0.3 mm 6 mps 751 mmHg 85%
    11:00 +3°C° 0.6 mm 6 mps 750 mmHg 85%
    12:00 +3°C° 0.6 mm 6 mps 749 mmHg 84%
    13:00 +4°C° 0.6 mm 6 mps 749 mmHg 83%
    14:00 +4°C° 0.2 mm 6 mps 748 mmHg 80%
    15:00 +5°C° 0.2 mm 7 mps 747 mmHg 78%
    16:00 +5°C° 0.2 mm 7 mps 747 mmHg 75%
    17:00 +5°C° 0.1 mm 6 mps 746 mmHg 75%
    18:00 +5°C° 0.1 mm 6 mps 746 mmHg 76%
    19:00 +5°C° 0.1 mm 6 mps 745 mmHg 76%
    20:00 +6°C° 0.7 mm 7 mps 745 mmHg 76%
    21:00 +6°C° 0.7 mm 8 mps 744 mmHg 76%
    22:00 +7°C° 0.7 mm 9 mps 744 mmHg 75%
    23:00 +5°C° 0.1 mm 9 mps 744 mmHg 77%

    Tomorrow, 29 January, Wednesday

    Time Temperature Precipitation Wind Pressure Humidity
    00:00 +4°C° 0.1 mm 8 mps 745 mmHg 78%
    01:00 +2°C° 0.1 mm 8 mps 746 mmHg 80%
    02:00 +2°C° 0 mm 7 mps 746 mmHg 75%
    03:00 +2°C° 0 mm 7 mps 747 mmHg 71%
    04:00 +2°C° 0 mm 6 mps 748 mmHg 67%
    05:00 +1°C° 0 mm 5 mps 748 mmHg 71%
    06:00 +1°C° 0 mm 5 mps 749 mmHg 75%
    07:00 0°C° 0 mm 5 mps 750 mmHg 79%
    08:00 +1°C° 0 mm 5 mps 750 mmHg 77%
    09:00 +2°C° 0 mm 5 mps 750 mmHg 76%
    10:00 +3°C° 0 mm 5 mps 750 mmHg 74%
    11:00 +5°C° 0 mm 5 mps 750 mmHg 67%
    12:00 +5°C° 0 mm 6 mps 750 mmHg 60%
    13:00 +7°C° 0 mm 6 mps 751 mmHg 53%
    14:00 +6°C° 0 mm 4 mps 750 mmHg 54%
    15:00 +7°C° 0 mm 3 mps 750 mmHg 56%
    16:00 +6°C° 0 mm 2 mps 750 mmHg 57%
    17:00 +5°C° 0 mm 2 mps 751 mmHg 61%
    18:00 +4°C° 0 mm 2 mps 751 mmHg 65%
    19:00 +4°C° 0 mm 2 mps 752 mmHg 69%
    20:00 +2°C° 0 mm 3 mps 752 mmHg 72%
    21:00 +2°C° 0 mm 3 mps 753 mmHg 74%
    22:00 +2°C° 0 mm 3 mps 753 mmHg 77%
    23:00 +1°C° 0 mm 4 mps 753 mmHg 75%

    Day after tomorrow, 30 January, Thursday

    Time Temperature Precipitation Wind Pressure Humidity
    00:00 +1°C° 0 mm 4 mps 754 mmHg 73%
    01:00 0°C° 0 mm 5 mps 754 mmHg 71%
    02:00 0°C° 0 mm 5 mps 754 mmHg 74%
    03:00 0°C° 0 mm 5 mps 755 mmHg 78%
    04:00 -2°C° 0 mm 6 mps 755 mmHg 82%
    05:00 -2°C° 0 mm 6 mps 756 mmHg 81%
    06:00 -2°C° 0 mm 6 mps 756 mmHg 80%
    07:00 -2°C° 0 mm 6 mps 757 mmHg 79%
    08:00 -1°C° 0 mm 6 mps 757 mmHg 73%
    09:00 +1°C° 0 mm 6 mps 758 mmHg 67%
    10:00 +2°C° 0 mm 7 mps 758 mmHg 61%
    11:00 +3°C° 0 mm 7 mps 758 mmHg 58%
    12:00 +3°C° 0 mm 7 mps 758 mmHg 56%
    13:00 +4°C° 0 mm 7 mps 758 mmHg 53%
    14:00 +4°C° 0 mm 6 mps 758 mmHg 55%
    15:00 +3°C° 0 mm 5 mps 758 mmHg 57%
    16:00 +4°C° 0 mm 3 mps 757 mmHg 60%
    17:00 +3°C° 0 mm 3 mps 757 mmHg 63%
    18:00 +2°C° 0 mm 3 mps 757 mmHg 66%
    19:00 +2°C° 0 mm 2 mps 757 mmHg 69%
    20:00 +1°C° 0 mm 3 mps 757 mmHg 69%
    21:00 +1°C° 0 mm 3 mps 757 mmHg 69%
    22:00 +1°C° 0 mm 3 mps 757 mmHg 68%
    23:00 +1°C° 0 mm 3 mps 756 mmHg 68%

    31 January, Friday

    Time Temperature Precipitation Wind Pressure Humidity
    00:00 0°C° 0 mm 4 mps 756 mmHg 69%
    01:00 0°C° 0 mm 4 mps 756 mmHg 69%
    02:00 0°C° 0 mm 4 mps 756 mmHg 69%
    03:00 -1°C° 0 mm 4 mps 755 mmHg 70%
    04:00 -1°C° 0 mm 5 mps 755 mmHg 71%
    05:00 -1°C° 0 mm 5 mps 755 mmHg 71%
    06:00 -1°C° 0 mm 4 mps 755 mmHg 71%
    07:00 -1°C° 0 mm 4 mps 754 mmHg 71%
    08:00 +1°C° 0 mm 5 mps 754 mmHg 66%
    09:00 +2°C° 0 mm 5 mps 754 mmHg 62%
    10:00 +3°C° 0 mm 5 mps 755 mmHg 58%
    11:00 +5°C° 0.2 mm 5 mps 754 mmHg 62%
    12:00 +6°C° 0.2 mm 5 mps 754 mmHg 66%
    13:00 +6°C° 0.2 mm 4 mps 753 mmHg 70%
    14:00 +6°C° 0.1 mm 4 mps 753 mmHg 73%
    15:00 +6°C° 0.1 mm 4 mps 753 mmHg 76%
    16:00 +8°C° 0.1 mm 3 mps 753 mmHg 79%
    17:00 +7°C° 0 mm 4 mps 753 mmHg 79%
    18:00 +7°C° 0 mm 5 mps 753 mmHg 78%
    19:00 +7°C° 0 mm 5 mps 754 mmHg 78%
    20:00 +7°C° 0 mm 6 mps 754 mmHg 77%
    21:00 +7°C° 0 mm 6 mps 754 mmHg 76%
    22:00 +7°C° 0 mm 6 mps 754 mmHg 75%
    23:00 +7°C° 0 mm 6 mps 754 mmHg 76%

    1 February, Saturday

    Time Temperature Precipitation Wind Pressure Humidity
    00:00 +7°C° 0 mm 5 mps 754 mmHg 78%
    01:00 +7°C° 0 mm 5 mps 754 mmHg 79%
    02:00 +7°C° 0 mm 5 mps 754 mmHg 79%
    03:00 +7°C° 0 mm 5 mps 754 mmHg 80%
    04:00 +7°C° 0 mm 5 mps 754 mmHg 80%
    05:00 +7°C° 0 mm 5 mps 754 mmHg 81%
    06:00 +7°C° 0 mm 5 mps 754 mmHg 82%
    07:00 +6°C° 0 mm 4 mps 754 mmHg 83%
    08:00 +7°C° 0 mm 4 mps 754 mmHg 80%
    09:00 +8°C° 0 mm 5 mps 754 mmHg 77%
    10:00 +8°C° 0 mm 5 mps 754 mmHg 73%
    11:00 +9°C° 0 mm 5 mps 754 mmHg 70%
    12:00 +12°C° 0 mm 5 mps 754 mmHg 66%
    13:00 +13°C° 0 mm 5 mps 754 mmHg 63%
    14:00 +13°C° 0 mm 5 mps 753 mmHg 65%
    15:00 +12°C° 0 mm 4 mps 753 mmHg 67%
    16:00 +12°C° 0 mm 3 mps 753 mmHg 69%
    17:00 +12°C° 0 mm 3 mps 754 mmHg 72%
    18:00 +11°C° 0 mm 3 mps 754 mmHg 75%
    19:00 +10°C° 0 mm 3 mps 754 mmHg 78%
    20:00 +10°C° 0 mm 3 mps 754 mmHg 79%
    21:00 +10°C° 0 mm 4 mps 754 mmHg 80%
    22:00 +10°C° 0 mm 4 mps 755 mmHg 81%
    23:00 +10°C° 0.1 mm 4 mps 755 mmHg 80%

    2 February, Sunday

    Time Temperature Precipitation Wind Pressure Humidity
    00:00 +10°C° 0.1 mm 4 mps 755 mmHg 79%
    01:00 +9°C° 0.1 mm 5 mps 755 mmHg 78%
    02:00 +9°C° 0 mm 5 mps 755 mmHg 79%
    03:00 +8°C° 0 mm 5 mps 756 mmHg 80%
    04:00 +7°C° 0 mm 5 mps 756 mmHg 81%
    05:00 +7°C° 0 mm 4 mps 757 mmHg 82%
    06:00 +8°C° 0 mm 3 mps 757 mmHg 82%
    07:00 +7°C° 0 mm 3 mps 757 mmHg 82%
    08:00 +9°C° 0 mm 3 mps 757 mmHg 78%
    09:00 +10°C° 0 mm 3 mps 758 mmHg 74%
    10:00 +11°C° 0 mm 3 mps 758 mmHg 70%
    11:00 +12°C° 0 mm 3 mps 757 mmHg 67%
    12:00 +13°C° 0 mm 4 mps 757 mmHg 64%
    13:00 +14°C° 0 mm 5 mps 756 mmHg 61%
    14:00 +14°C° 0 mm 4 mps 755 mmHg 62%
    15:00 +14°C° 0 mm 4 mps 755 mmHg 63%
    16:00 +13°C° 0 mm 4 mps 754 mmHg 64%
    17:00 +12°C° 0 mm 4 mps 754 mmHg 67%
    18:00 +11°C° 0 mm 4 mps 754 mmHg 70%
    19:00 +10°C° 0 mm 4 mps 754 mmHg 73%
    20:00 +10°C° 0 mm 4 mps 754 mmHg 75%
    21:00 +10°C° 0 mm 4 mps 754 mmHg 77%
    22:00 +10°C° 0 mm 4 mps 754 mmHg 78%
    23:00 +9°C° 0 mm 5 mps 754 mmHg 77%
    Show more